• In Hungary
  • List of Countries
  • For 7 days
  • Water Temperature
  • Satellite Maps
  • Weather Map
  • News
  • Weather Widgets
  • user-avatar
    Login

    Hourly Weather Lahr

    Today, 16 December, Saturday

    Time Temperature Precipitation Wind Pressure Humidity
    00:00 +2°C° 0.1 mm 2 mps 736 mmHg 90%
    01:00 +3°C° 0 mm 2 mps 736 mmHg 90%
    02:00 +4°C° 0.2 mm 1 mps 737 mmHg 91%
    03:00 +3°C° 0.2 mm 1 mps 737 mmHg 92%
    04:00 +3°C° 0.2 mm 1 mps 737 mmHg 93%
    05:00 +3°C° 0.2 mm 1 mps 738 mmHg 93%
    06:00 +3°C° 0.2 mm 1 mps 738 mmHg 93%
    07:00 +3°C° 0.2 mm 1 mps 739 mmHg 93%
    08:00 +4°C° 0.3 mm 1 mps 740 mmHg 92%
    09:00 +4°C° 0.3 mm 1 mps 741 mmHg 91%
    10:00 +3°C° 0.3 mm 2 mps 741 mmHg 90%
    11:00 +3°C° 0.3 mm 2 mps 742 mmHg 88%
    12:00 +4°C° 0.3 mm 2 mps 743 mmHg 86%
    13:00 +3°C° 0.3 mm 3 mps 743 mmHg 84%
    14:00 +4°C° 0.1 mm 2 mps 744 mmHg 85%
    15:00 +3°C° 0.1 mm 2 mps 744 mmHg 86%
    16:00 +3°C° 0.1 mm 2 mps 745 mmHg 87%
    17:00 +3°C° 0.1 mm 2 mps 746 mmHg 88%
    18:00 +2°C° 0.1 mm 2 mps 746 mmHg 90%
    19:00 +2°C° 0.1 mm 2 mps 747 mmHg 91%
    20:00 +2°C° 0.3 mm 2 mps 747 mmHg 92%
    21:00 +2°C° 0.3 mm 2 mps 748 mmHg 92%
    22:00 +2°C° 0.3 mm 2 mps 749 mmHg 92%
    23:00 +2°C° 0.4 mm 2 mps 749 mmHg 93%

    Tomorrow, 17 December, Sunday

    Time Temperature Precipitation Wind Pressure Humidity
    00:00 +2°C° 0.4 mm 2 mps 749 mmHg 94%
    01:00 +2°C° 0.4 mm 2 mps 750 mmHg 94%
    02:00 +2°C° 0.1 mm 2 mps 750 mmHg 94%
    03:00 +1°C° 0.1 mm 2 mps 750 mmHg 94%
    04:00 +1°C° 0.1 mm 2 mps 750 mmHg 94%
    05:00 +1°C° 0.1 mm 2 mps 751 mmHg 93%
    06:00 -1°C° 0.1 mm 2 mps 751 mmHg 93%
    07:00 -1°C° 0.1 mm 2 mps 752 mmHg 93%
    08:00 -1°C° 0.1 mm 2 mps 752 mmHg 92%
    09:00 -1°C° 0.1 mm 2 mps 753 mmHg 90%
    10:00 +1°C° 0.1 mm 2 mps 753 mmHg 89%
    11:00 +1°C° 0.1 mm 2 mps 753 mmHg 87%
    12:00 +2°C° 0.1 mm 2 mps 753 mmHg 85%
    13:00 +2°C° 0.1 mm 2 mps 754 mmHg 83%
    14:00 +2°C° 0 mm 2 mps 754 mmHg 84%
    15:00 +2°C° 0 mm 2 mps 754 mmHg 85%
    16:00 +3°C° 0 mm 1 mps 754 mmHg 87%
    17:00 +1°C° 0 mm 2 mps 755 mmHg 88%
    18:00 +1°C° 0 mm 2 mps 756 mmHg 89%
    19:00 +1°C° 0 mm 2 mps 756 mmHg 90%
    20:00 -1°C° 0 mm 2 mps 757 mmHg 90%
    21:00 -1°C° 0 mm 2 mps 757 mmHg 90%
    22:00 -1°C° 0 mm 2 mps 757 mmHg 90%
    23:00 -1°C° 0 mm 2 mps 757 mmHg 89%

    Day after tomorrow, 18 December, Monday

    Time Temperature Precipitation Wind Pressure Humidity
    00:00 -1°C° 0 mm 2 mps 757 mmHg 89%
    01:00 -1°C° 0 mm 3 mps 756 mmHg 88%
    02:00 -1°C° 0.1 mm 3 mps 756 mmHg 87%
    03:00 -1°C° 0.1 mm 4 mps 755 mmHg 85%
    04:00 -1°C° 0.1 mm 4 mps 754 mmHg 84%
    05:00 -1°C° 1.1 mm 5 mps 754 mmHg 87%
    06:00 -1°C° 1.1 mm 5 mps 753 mmHg 89%
    07:00 -1°C° 1.1 mm 5 mps 752 mmHg 92%
    08:00 0°C° 0.8 mm 5 mps 752 mmHg 92%
    09:00 0°C° 0.8 mm 4 mps 751 mmHg 92%
    10:00 0°C° 0.8 mm 4 mps 751 mmHg 93%
    11:00 +2°C° 0.4 mm 3 mps 751 mmHg 94%
    12:00 +2°C° 0.4 mm 3 mps 751 mmHg 95%
    13:00 +4°C° 0.4 mm 2 mps 751 mmHg 96%
    14:00 +3°C° 0.1 mm 2 mps 752 mmHg 95%
    15:00 +3°C° 0.1 mm 2 mps 752 mmHg 95%
    16:00 +3°C° 0.1 mm 2 mps 753 mmHg 94%
    17:00 +4°C° 0.1 mm 1 mps 753 mmHg 94%
    18:00 +3°C° 0.1 mm 1 mps 754 mmHg 95%
    19:00 +3°C° 0.1 mm 1 mps 755 mmHg 95%
    20:00 +3°C° 0 mm 1 mps 756 mmHg 95%
    21:00 +2°C° 0 mm 1 mps 756 mmHg 95%
    22:00 +2°C° 0 mm 1 mps 757 mmHg 95%
    23:00 +2°C° 0 mm 1 mps 757 mmHg 95%

    19 December, Tuesday

    Time Temperature Precipitation Wind Pressure Humidity
    00:00 +1°C° 0 mm 1 mps 758 mmHg 94%
    01:00 +1°C° 0 mm 1 mps 758 mmHg 94%
    02:00 0°C° 0 mm 0 mps 759 mmHg 94%
    03:00 0°C° 0 mm 0 mps 759 mmHg 94%
    04:00 -1°C° 0 mm 0 mps 759 mmHg 94%
    05:00 -1°C° 0 mm 0 mps 760 mmHg 93%
    06:00 -1°C° 0 mm 0 mps 760 mmHg 93%
    07:00 -1°C° 0 mm 0 mps 760 mmHg 93%
    08:00 0°C° 0 mm 0 mps 761 mmHg 92%
    09:00 +1°C° 0 mm 0 mps 761 mmHg 92%
    10:00 +1°C° 0 mm 0 mps 761 mmHg 91%
    11:00 +2°C° 0 mm 0 mps 761 mmHg 92%
    12:00 +3°C° 0 mm 0 mps 761 mmHg 92%
    13:00 +5°C° 0 mm 1 mps 761 mmHg 93%
    14:00 +4°C° 0 mm 1 mps 761 mmHg 93%
    15:00 +4°C° 0 mm 1 mps 761 mmHg 94%
    16:00 +3°C° 0 mm 1 mps 761 mmHg 94%
    17:00 +3°C° 0 mm 1 mps 761 mmHg 94%
    18:00 +2°C° 0 mm 0 mps 762 mmHg 94%
    19:00 +1°C° 0 mm 0 mps 762 mmHg 94%
    20:00 +1°C° 0 mm 0 mps 762 mmHg 94%
    21:00 +1°C° 0 mm 0 mps 762 mmHg 94%
    22:00 +1°C° 0 mm 0 mps 763 mmHg 94%
    23:00 0°C° 0 mm 0 mps 763 mmHg 94%

    20 December, Wednesday

    Time Temperature Precipitation Wind Pressure Humidity
    00:00 0°C° 0 mm 0 mps 763 mmHg 94%
    01:00 -1°C° 0 mm 0 mps 763 mmHg 94%
    02:00 -1°C° 0 mm 0 mps 763 mmHg 93%
    03:00 -1°C° 0 mm 0 mps 763 mmHg 93%
    04:00 -1°C° 0 mm 0 mps 763 mmHg 92%
    05:00 0°C° 0 mm 0 mps 763 mmHg 92%
    06:00 0°C° 0 mm 0 mps 763 mmHg 91%
    07:00 0°C° 0 mm 0 mps 763 mmHg 91%
    08:00 +1°C° 0 mm 0 mps 763 mmHg 90%
    09:00 +1°C° 0 mm 0 mps 764 mmHg 89%
    10:00 +3°C° 0 mm 1 mps 764 mmHg 88%
    11:00 +4°C° 0 mm 1 mps 764 mmHg 88%
    12:00 +5°C° 0 mm 1 mps 763 mmHg 88%
    13:00 +5°C° 0 mm 1 mps 763 mmHg 88%
    14:00 +5°C° 0 mm 1 mps 763 mmHg 89%
    15:00 +5°C° 0 mm 1 mps 763 mmHg 89%
    16:00 +4°C° 0 mm 1 mps 763 mmHg 90%
    17:00 +4°C° 0.1 mm 1 mps 763 mmHg 90%
    18:00 +4°C° 0.1 mm 1 mps 763 mmHg 89%
    19:00 +4°C° 0.1 mm 1 mps 764 mmHg 89%
    20:00 +4°C° 0 mm 1 mps 764 mmHg 89%
    21:00 +4°C° 0 mm 1 mps 764 mmHg 90%
    22:00 +4°C° 0 mm 1 mps 764 mmHg 90%
    23:00 +4°C° 0 mm 1 mps 764 mmHg 90%

    21 December, Thursday

    Time Temperature Precipitation Wind Pressure Humidity
    00:00 +5°C° 0 mm 1 mps 764 mmHg 91%
    01:00 +5°C° 0 mm 1 mps 764 mmHg 92%
    02:00 +5°C° 0 mm 1 mps 764 mmHg 92%
    03:00 +5°C° 0 mm 1 mps 764 mmHg 92%
    04:00 +5°C° 0 mm 1 mps 764 mmHg 93%
    05:00 +4°C° 0.1 mm 2 mps 764 mmHg 93%
    06:00 +4°C° 0.1 mm 2 mps 764 mmHg 93%
    07:00 +4°C° 0.1 mm 2 mps 764 mmHg 94%
    08:00 +4°C° 0.1 mm 2 mps 764 mmHg 94%
    09:00 +5°C° 0.1 mm 2 mps 764 mmHg 94%
    10:00 +5°C° 0.1 mm 2 mps 764 mmHg 95%
    11:00 +6°C° 0 mm 2 mps 764 mmHg 95%
    12:00 +6°C° 0 mm 2 mps 763 mmHg 94%
    13:00 +7°C° 0 mm 2 mps 763 mmHg 94%
    14:00 +7°C° 0 mm 2 mps 763 mmHg 95%
    15:00 +6°C° 0 mm 2 mps 763 mmHg 95%
    16:00 +6°C° 0 mm 2 mps 763 mmHg 96%
    17:00 +6°C° 0 mm 2 mps 763 mmHg 96%
    18:00 +6°C° 0 mm 2 mps 763 mmHg 96%
    19:00 +6°C° 0 mm 2 mps 763 mmHg 96%
    20:00 +6°C° 0.1 mm 2 mps 763 mmHg 96%
    21:00 +6°C° 0.1 mm 2 mps 763 mmHg 96%
    22:00 +6°C° 0.1 mm 2 mps 763 mmHg 96%
    23:00 +6°C° 0.1 mm 2 mps 763 mmHg 96%
    Show more